DW5566 Rabat MA current weather conditions

sailwx.info

Wind from 020

Air temperature 22.2° C
Dewpoint 20.3° C

Last reported at 2018-Jul-21 19:02 UTC.
Time now 2018-Jul-21 19:16 UTC

Location: N 33°54' W 006°59'.
View on Google Maps.

See reports from other nearby stations

  
Tides and Currents Weather Stations Pressure Air Temp Water Temp Dewpoint Dewpoint Depression Visibility Wind Speed Wind Dir Waves Ship Positions
date/time (UTC)wind fromknots sea level pressurealtimeterstation pressurevisibilityair tempwater tempwave heightnotes
2018-Jul-21 19:02 020 22.2
2018-Jul-21 18:47 046 22.2
2018-Jul-21 18:32 009 22.2
2018-Jul-21 18:17 006 22.2
2018-Jul-21 18:02 018 22.8
2018-Jul-21 17:47 343 22.8
2018-Jul-21 17:32 358 22.8
2018-Jul-21 17:17 015 23.3
2018-Jul-21 17:02 029 23.9
2018-Jul-21 16:47 355 23.9
2018-Jul-21 16:32 026 23.9
2018-Jul-21 16:17 359 23.9
2018-Jul-21 16:02 352 23.9
2018-Jul-21 15:47 355 23.9
2018-Jul-21 15:32 360 23.9
2018-Jul-21 15:17 352 23.9
2018-Jul-21 15:02 328 23.9
2018-Jul-21 14:47 005 23.9
2018-Jul-21 14:32 001 23.9
2018-Jul-21 14:17 354 23.9
2018-Jul-21 14:02 028 23.9
2018-Jul-21 13:47 351 23.9
2018-Jul-21 13:32 353 23.9
2018-Jul-21 13:17 013 23.3
2018-Jul-21 13:02 348 23.3
2018-Jul-21 12:47 331 23.3
2018-Jul-21 12:32 318 23.3
2018-Jul-21 12:17 322 23.3
2018-Jul-21 12:02 301 22.8
2018-Jul-21 11:47 320 22.8
2018-Jul-21 11:32 317 22.2
2018-Jul-21 11:17 325 22.2
2018-Jul-21 11:02 317 22.2
2018-Jul-21 10:47 311 22.2
2018-Jul-21 10:32 313 22.2
2018-Jul-21 10:16 311 21.7
2018-Jul-21 10:02 325 21.7
2018-Jul-21 09:46 315 21.7
2018-Jul-21 09:31 311 21.7
2018-Jul-21 09:16 308 21.7
2018-Jul-21 08:46 315 21.7
2018-Jul-21 08:31 319 21.1
2018-Jul-21 08:16 302 21.7
2018-Jul-21 08:01 299 21.7
2018-Jul-21 07:46 355 21.1
2018-Jul-21 07:31 153 21.7
2018-Jul-21 07:16 142 21.1
2018-Jul-21 07:01 158 20.6
2018-Jul-21 06:46 143 20.0
2018-Jul-21 06:31 172 20.0
2018-Jul-21 06:16 178 19.4
2018-Jul-21 06:01 174 19.4
2018-Jul-21 05:46 148 19.4
2018-Jul-21 05:31 154 19.4
2018-Jul-21 05:16 173 19.4
2018-Jul-21 05:01 278 19.4
2018-Jul-21 04:46 278 19.4
2018-Jul-21 04:31 278 20.0
2018-Jul-21 04:16 278 20.0
2018-Jul-21 04:01 278 20.0
2018-Jul-21 03:46 278 20.0
2018-Jul-21 03:31 278 20.0
2018-Jul-21 03:16 278 20.6
2018-Jul-21 03:01 278 20.6
2018-Jul-21 02:46 278 20.6
2018-Jul-21 02:31 278 20.6
2018-Jul-21 02:16 278 20.6
2018-Jul-21 02:01 278 20.6
2018-Jul-21 01:46 278 21.1
2018-Jul-21 01:31 285 21.1
2018-Jul-21 01:16 084 21.1
2018-Jul-21 01:01 276 21.1
2018-Jul-21 00:46 255 21.1
2018-Jul-21 00:31 240 21.1
2018-Jul-21 00:16 262 0 gusting 2 21.1
2018-Jul-21 00:01 250 21.1
2018-Jul-20 23:46 221 20.6
2018-Jul-20 23:31 249 20.6
2018-Jul-20 23:15 229 20.6
2018-Jul-20 23:00 229 21.1
2018-Jul-20 22:45 244 21.1
2018-Jul-20 22:30 264 21.1
2018-Jul-20 22:15 266 21.1
2018-Jul-20 22:00 264 21.1
2018-Jul-20 21:45 237 21.1
2018-Jul-20 21:30 269 21.1
2018-Jul-20 21:15 264 21.1
2018-Jul-20 21:00 264 21.1
2018-Jul-20 20:45 293 21.7
2018-Jul-20 20:30 330 21.7
2018-Jul-20 20:15 004 21.7
2018-Jul-20 20:00 038 21.7
2018-Jul-20 19:45 008 21.7
2018-Jul-20 19:30 005 21.7
2018-Jul-20 19:15 026 21.7
2018-Jul-20 19:00 356 0 gusting 3 21.7
2018-Jul-20 18:45 354 21.7
2018-Jul-20 18:30 003 22.2
2018-Jul-20 18:15 002 22.2
2018-Jul-20 18:00 015 22.2
2018-Jul-20 17:45 356 22.2
2018-Jul-20 17:30 007 22.8
2018-Jul-20 17:15 356 22.8
2018-Jul-20 17:00 342 22.8
2018-Jul-20 16:46 351 22.8
2018-Jul-20 16:30 346 23.3
2018-Jul-20 16:15 339 23.3
2018-Jul-20 16:00 348 23.3
2018-Jul-20 15:45 360 23.3
2018-Jul-20 15:30 349 23.3
2018-Jul-20 15:15 354 23.9
2018-Jul-20 15:00 349 23.3
2018-Jul-20 14:45 354 23.3
2018-Jul-20 14:30 335 23.9
2018-Jul-20 14:15 359 23.9
2018-Jul-20 14:00 347 23.9
2018-Jul-20 13:45 307 24.4
2018-Jul-20 13:30 321 23.9
2018-Jul-20 13:15 334 23.9
2018-Jul-20 13:00 323 23.9
2018-Jul-20 12:45 322 23.9
2018-Jul-20 12:30 300 23.9
2018-Jul-20 12:15 307 23.3
2018-Jul-20 12:00 307 23.3
2018-Jul-20 11:45 297 22.8
2018-Jul-20 11:30 273 22.8
2018-Jul-20 11:15 307 22.8
2018-Jul-20 11:00 284 22.2
2018-Jul-20 10:45 291 22.2
2018-Jul-20 10:29 285 0 gusting 3 22.2
2018-Jul-20 10:14 297 0 gusting 2 21.7
2018-Jul-20 09:59 290 0 gusting 2 21.7
2018-Jul-20 09:44 289 0 gusting 4 21.7
2018-Jul-20 09:29 283 0 gusting 4 21.7
2018-Jul-20 09:14 283 0 gusting 2 21.7
2018-Jul-20 08:59 292 0 gusting 3 21.7
2018-Jul-20 08:44 290 0 gusting 3 21.7
2018-Jul-20 08:29 286 0 gusting 4 21.1
2018-Jul-20 08:14 281 1 gusting 3 21.1
2018-Jul-20 07:59 270 1 gusting 2 21.1
2018-Jul-20 07:44 283 20.6
2018-Jul-20 07:29 269 20.6
2018-Jul-20 07:14 282 20.6
2018-Jul-20 06:59 252 20.6
2018-Jul-20 06:44 198 20.6
2018-Jul-20 06:29 212 20.0
2018-Jul-20 06:14 234 20.0
2018-Jul-20 05:59 234 20.0
2018-Jul-20 05:44 234 20.0
2018-Jul-20 05:29 234 20.0
2018-Jul-20 05:14 234 20.0
2018-Jul-20 04:59 247 20.0
2018-Jul-20 04:44 250 20.0
2018-Jul-20 04:29 250 20.0
2018-Jul-20 04:15 250 20.0
2018-Jul-20 03:59 249 20.0
2018-Jul-20 03:44 249 20.6
2018-Jul-20 03:29 293 0 gusting 2 20.6
2018-Jul-20 03:14 284 0 gusting 3 20.6
2018-Jul-20 02:59 259 20.6
2018-Jul-20 02:44 300 1 gusting 3 20.6
2018-Jul-20 02:29 316 20.0
2018-Jul-20 02:14 316 20.6
2018-Jul-20 01:59 316 20.6
2018-Jul-20 01:44 314 20.6
2018-Jul-20 01:29 315 20.6
2018-Jul-20 01:14 314 20.6
2018-Jul-20 00:59 315 20.6
2018-Jul-20 00:44 264 20.6
2018-Jul-20 00:29 263 20.6
2018-Jul-20 00:14 260 20.6
2018-Jul-19 23:59 260 20.6
2018-Jul-19 23:44 260 20.6
2018-Jul-19 23:29 261 20.6
2018-Jul-19 23:14 261 20.6
2018-Jul-19 22:59 254 20.6
2018-Jul-19 22:44 255 20.6
2018-Jul-19 22:29 235 20.6
2018-Jul-19 22:14 289 20.6
2018-Jul-19 21:59 311 21.1
2018-Jul-19 21:44 335 21.1
2018-Jul-19 21:28 336 21.1
2018-Jul-19 21:13 320 21.1
2018-Jul-19 20:58 322 1 gusting 2 21.1
2018-Jul-19 20:43 109 21.1
2018-Jul-19 20:28 013 21.1
2018-Jul-19 20:13 345 21.7
2018-Jul-19 19:58 039 21.7
2018-Jul-19 19:43 037 21.7
2018-Jul-19 19:28 034 21.7
2018-Jul-19 19:13 013 21.7